Overview Statistics Trail Chart Weather Telemetry Raw packets
 

This is the latest recevied weather packets stored in our database for station/object SA7AHC. If no packets are shown the sender has not sent any weather packets the latest 10 day(s).

<< 6 7 8 9 10 11 12 >>
Time Temp. Humidity Pressure Rain* Wind** Luminosity Snow
1788519990 13.33° C 89% 1002.4 hPa 0 mm - 79 W/m² -
1788519407 13.33° C 90% 1002.5 hPa 0 mm - 127 W/m² -
1788518783 13.89° C 89% 1002.5 hPa 0 mm - 135 W/m² -
1788518173 13.89° C 90% 1002.5 hPa 0 mm - 178 W/m² -
1788517574 13.89° C 89% 1002.5 hPa 0 mm - 183 W/m² -
1788516971 13.89° C 90% 1002.5 hPa 0 mm - 190 W/m² -
1788516385 13.33° C 90% 1002.9 hPa 0 mm - 267 W/m² -
1788515775 13.33° C 90% 1002.9 hPa 0 mm - 192 W/m² -
1788515167 13.33° C 90% 1002.9 hPa 0 mm - 179 W/m² -
1788514563 13.33° C 91% 1002.9 hPa 0 mm - 281 W/m² -
1788513966 13.33° C 92% 1002.9 hPa 0 mm - 283 W/m² -
1788513366 13.33° C 92% 1003 hPa 0 mm - 225 W/m² -
1788512761 13.33° C 93% 1003 hPa 0 mm - 243 W/m² -
1788512161 13.33° C 93% 1003 hPa 0 mm - 188 W/m² -
1788511561 13.33° C 94% 1003 hPa 0 mm - 151 W/m² -
1788510962 12.78° C 93% 1003 hPa 0 mm - 206 W/m² -
1788510383 13.33° C 94% 1003 hPa 0 mm - 148 W/m² -
1788509761 13.33° C 94% 1003 hPa 0 mm - 190 W/m² -
1788509161 13.33° C 95% 1003.1 hPa 0 mm - 387 W/m² -
1788508562 12.78° C 96% 1003.1 hPa 0 mm - 315 W/m² -
1788507964 12.78° C 97% 1003.2 hPa 0 mm - 202 W/m² -
1788507362 12.22° C 97% 1003.3 hPa 0 mm - 190 W/m² -
1788506775 12.22° C 98% 1003.3 hPa 0 mm - 190 W/m² -
1788506161 12.22° C 98% 1003.4 hPa 0 mm - 162 W/m² -
1788505563 11.67° C 98% 1003.6 hPa 0 mm - 148 W/m² -

* Rain latest hour (hover to see other rain measurements)
** Current wind speed in m/s (hover to see current wind gust speed)